Regional Weather Roundup
Issued by NWS

Home | Current Version | Previous Version | Graphics & Text | Print | Product List | Glossary On
Versions: 1 2 3 4 5 6 7 8 9 10 11 12 13 14 15 16 17 18 19 20 21 22 23 24 25 26 27 28 29 30 31 32 33 34 35 36 37 38 39 40 41 42 43 44 45 46 47 48 49 50
603
ASUS43 KLMK 261210
RWRKY
KENTUCKY REGIONAL WEATHER ROUNDUP
NATIONAL WEATHER SERVICE LOUISVILLE KY
800 AM EDT FRI MAY 26 2017

NOTE "FAIR" INDICATES FEW OR NO CLOUDS BELOW 12,000 FEET
WITH NO SIGNIFICANT WEATHER AND/OR OBSTRUCTIONS TO VISIBILITY.

KYZ001>023-026-027-061>063-070>075-261300-
WESTERN AND SOUTH CENTRAL KENTUCKY

CITY           SKY/WX    TMP DP  RH WIND       PRES   REMARKS
PADUCAH        SUNNY     64  54  69 S7        29.86R
HENDERSON      SUNNY     61  55  81 S5        29.89R
OWENSBORO      SUNNY     60  54  80 S7        29.91S
HOPKINSVILLE   SUNNY     60  54  78 S5        29.92R
BOWLING GREEN  MOSUNNY   61  55  81 SW5       29.95R
GLASGOW        SUNNY     58  54  86 CALM      29.96R
$$

KYZ024-025-028>034-038-045-046-053-261300-
NORTH CENTRAL KENTUCKY

CITY           SKY/WX    TMP DP  RH WIND       PRES   REMARKS
LOUISVILLE/SDF MOSUNNY   60  55  83 S3        29.92R
LOUISVILLE/LOU SUNNY     59  57  93 S5        29.93R
FORT KNOX      SUNNY     58  54  86 S5        29.92S
$$

KYZ035>037-039>044-047>052-055>060-089>105-261300-
NORTHEAST KENTUCKY

CITY           SKY/WX    TMP DP  RH WIND       PRES   REMARKS
LEXINGTON      SUNNY     58  53  84 SW7       29.95R
COVINGTON      MOSUNNY   56  55  97 SW3       29.91R
FRANKFORT      SUNNY     58  53  84 SW5       29.92R
$$

KYZ054-064>069-076>088-106>120-261300-
SOUTHEAST KENTUCKY

CITY           SKY/WX    TMP DP  RH WIND       PRES   REMARKS
JACKSON        SUNNY     58  55  90 VRB3      29.97R
LONDON         SUNNY     55  52  89 CALM      29.98R
SOMERSET       SUNNY     54  54 100 CALM      29.99R
MIDDLESBORO    SUNNY     55  54  97 CALM      30.01R
MONTICELLO     SUNNY     59  55  87 NW9       30.00R
$$





USA.gov is the U.S. government's official web portal to all federal, state and local government web resources and services.